Wind_Speed
13 11 9 7 7 6 4 4 7 12 15 14 12 10 10 12 13 13 13 11 11 11 14 19 22 23 23 22 22 21 21 19 17 15 13 12 11 11 11 11 12 12 14
12 11 8 7 7 7 6 5 6 8 12 13 12 9 9 10 11 11 10 11 11 15 17 18 20 21 22 22 21 20 18 16 14 12 11 9 10 10 11 12 13 12 13
10 10 8 7 6 8 7 6 7 7 8 11 12 10 9 8 7 8 8 10 13 16 16 16 18 19 19 19 18 16 14 12 10 9 8 8 8 9 9 10 10 10 11
9 9 9 6 6 7 8 8 8 8 7 8 9 10 9 8 7 6 6 9 14 15 14 15 17 17 18 17 15 13 11 10 8 7 7 7 7 8 9 9 10 11 12
7 8 8 6 5 6 9 8 7 8 7 7 8 9 9 7 6 5 5 8 13 15 14 14 16 16 16 15 12 11 10 9 8 6 6 6 6 8 10 10 10 10 12
4 5 7 6 5 4 6 10 8 8 6 7 6 7 7 7 5 4 5 6 12 15 14 14 15 15 14 13 12 10 9 8 7 5 5 5 5 5 6 7 6 6 7
2 4 5 6 6 5 2 5 10 10 9 6 5 4 5 5 6 5 4 7 10 14 15 14 14 14 14 14 12 10 8 7 5 4 3 2 2 3 4 4 4 4 4
4 4 4 5 8 6 5 2 1 7 10 9 6 3 4 4 5 6 5 6 9 14 16 15 14 14 14 13 12 11 9 7 6 4 3 2 2 3 2 2 1 1 1
3 4 4 5 6 7 8 6 5 3 3 7 8 7 5 4 5 6 7 7 9 13 18 17 16 15 14 14 12 11 9 8 8 8 7 6 6 7 6 6 6 7 7
8 7 8 6 6 7 8 8 7 6 6 5 4 5 7 6 6 6 7 9 10 12 17 19 19 17 16 15 14 13 12 12 11 11 11 10 11 11 11 11 11 11 11
14 11 10 11 11 8 9 9 9 9 9 8 7 6 7 9 9 9 10 11 12 13 15 19 20 21 20 19 18 17 17 16 16 16 16 15 15 16 15 15 15 16 16
20 17 16 15 14 15 13 11 11 11 10 11 11 10 9 9 10 12 12 12 13 14 15 17 20 22 24 24 23 23 22 21 21 21 21 20 20 20 19 19 20 21 21
22 22 20 18 18 18 20 18 17 15 14 13 12 13 13 12 12 13 13 15 15 15 17 18 19 20 22 24 25 26 27 27 26 26 25 25 24 24 24 24 24 24 24
25 21 21 23 24 24 23 24 25 22 21 20 18 15 15 16 17 16 16 16 17 19 20 20 20 21 22 24 25 26 27 27 28 28 28 27 27 27 26 26 27 27 26
29 26 27 30 27 27 28 28 27 29 28 27 25 23 21 20 19 20 21 21 21 21 21 22 23 23 23 24 25 26 28 29 29 30 30 29 29 29 29 29 28 29 29
35 35 34 32 34 34 33 32 30 29 31 33 31 31 30 29 26 24 23 24 26 27 26 25 24 25 26 27 28 29 30 31 31 30 31 30 30 30 30 30 30 30 31
38 36 36 35 36 37 37 37 36 36 35 35 36 37 36 34 35 34 32 28 28 30 31 31 30 29 28 29 30 32 33 33 33 33 33 31 31 31 32 32 32 33 33
39 38 40 39 38 38 39 40 42 40 40 39 39 40 41 41 40 40 40 39 37 35 34 34 33 34 35 35 34 35 34 34 34 35 35 34 34 34 34 35 35 36 36
39 40 42 41 41 41 42 44 44 45 47 47 46 45 43 43 45 45 45 45 45 45 42 39 38 38 38 40 40 40 39 37 36 37 37 36 37 37 37 38 39 39 40
41 42 43 43 43 44 44 45 47 49 51 51 52 52 52 49 48 50 50 50 50 51 50 48 46 45 44 44 43 44 43 43 42 42 40 39 38 38 40 41 41 41 42
41 42 42 42 43 44 44 46 47 48 51 54 56 56 57 57 57 56 54 54 54 55 56 56 55 53 51 49 49 48 47 47 45 45 46 45 44 43 43 44 44 44 45
39 42 43 45 45 46 47 48 48 48 51 52 55 59 62 63 63 63 63 62 61 60 60 60 61 60 58 57 56 55 53 53 52 51 50 48 47 48 49 47 46 46 47
39 40 41 42 45 45 45 46 48 51 53 53 56 58 59 62 67 69 70 69 66 66 67 65 64 65 64 64 63 63 61 61 59 58 60 54 54 51 51 50 51 49 49
36 37 39 41 43 45 46 48 50 52 54 57 59 61 63 65 66 67 71 74 74 71 70 70 69 68 67 69 69 70 68 71 69 66 66 66 63 60 56 56 55 54 54
30 31 33 38 41 44 46 49 52 54 57 59 61 64 66 68 70 72 73 73 75 77 77 74 72 72 73 72 72 74 73 71 63 67 67 74 71 67 65 66 64 63 59
27 28 31 32 34 34 35 36 36 34 34 33 37 46 53 58 66 72 78 79 79 79 80 83 81 79 77 76 77 78 77 75 87 87 82 71 77 86 81 78 73 73 72
Wind_Direction
59 66 65 72 90 92 93 78 72 82 82 78 72 72 80 86 91 95 96 98 105 110 116 116 117 119 119 119 118 118 117 116 114 108 106 105 103 102 101 98 93 88 84
64 70 72 79 103 102 106 100 90 81 90 88 84 82 81 84 92 100 103 112 117 124 124 119 121 122 122 123 124 123 121 116 111 107 103 101 100 99 102 101 95 87 82
68 67 82 81 95 109 111 115 107 96 90 97 99 92 85 84 88 103 120 125 131 132 131 128 127 125 125 126 126 123 121 114 109 105 101 104 107 104 103 100 93 88 87
64 67 70 81 90 102 108 112 120 110 109 106 105 103 99 87 81 102 130 143 147 143 139 140 136 134 133 132 133 132 125 117 109 105 104 105 110 111 107 99 92 90 87
78 60 65 74 90 105 105 104 114 120 120 117 114 109 109 101 96 96 131 158 162 158 149 150 151 150 144 145 147 142 136 130 120 109 101 102 110 112 109 103 95 85 83
77 70 60 54 83 109 120 113 108 108 118 123 125 127 125 126 120 114 129 165 177 174 165 161 165 160 160 163 161 160 150 139 129 118 114 121 128 123 116 114 105 94 85
301 14 48 28 31 57 101 131 127 120 116 122 138 136 133 139 143 147 149 166 185 189 186 178 177 181 180 181 177 176 174 162 156 145 123 130 141 146 135 123 113 96 81
255 292 352 16 15 9 18 18 187 150 140 134 133 151 167 164 162 168 171 174 187 198 200 196 192 193 198 197 195 194 197 191 190 185 188 220 232 222 214 220 286 289 302
213 264 289 327 341 353 356 350 344 316 222 169 164 163 172 195 195 186 190 191 194 201 209 210 208 207 210 214 213 213 217 223 223 221 215 225 243 250 255 268 276 277 273
205 217 242 256 297 315 332 338 331 320 322 303 238 211 190 185 205 212 210 209 201 204 210 216 220 221 222 225 231 235 238 240 245 245 244 241 243 249 254 261 266 273 272
244 251 261 268 251 259 283 301 313 317 309 300 292 276 244 219 209 213 223 220 217 210 211 219 223 225 229 233 236 241 250 257 260 258 257 256 253 254 256 259 262 266 270
245 260 262 264 273 263 261 268 281 293 298 296 296 287 276 266 245 230 225 228 228 228 224 223 227 231 235 238 243 249 254 257 260 261 262 263 263 262 260 261 264 268 271
241 258 270 271 274 280 270 265 263 268 273 274 281 283 285 278 271 265 249 236 230 231 233 229 233 237 241 243 245 249 253 255 256 259 261 264 265 266 266 267 266 265 267
244 252 265 273 276 281 281 278 268 263 264 262 265 262 272 281 280 277 274 265 251 241 234 235 235 238 243 246 248 251 252 254 257 258 259 259 262 264 266 267 267 267 267
250 256 265 270 269 269 276 274 269 266 266 268 267 264 260 260 268 278 276 275 272 265 252 244 241 238 239 244 249 250 252 252 253 254 257 259 259 261 262 264 265 266 267
257 264 268 266 268 264 265 266 267 266 265 263 264 267 269 266 262 259 266 274 274 272 270 265 256 249 245 241 242 247 251 253 254 255 258 259 261 262 262 261 262 263 264
263 263 262 262 262 265 264 262 260 265 267 265 264 263 262 264 267 266 263 260 267 273 272 272 270 266 259 254 250 246 248 254 257 260 260 261 262 263 263 264 263 263 263
260 261 263 264 264 263 266 267 265 260 260 263 261 262 262 262 262 264 267 266 264 264 266 271 271 273 270 266 261 259 256 253 255 257 260 262 263 264 264 264 264 263 263
261 261 263 264 265 264 263 265 265 264 265 263 262 261 258 260 261 260 260 262 265 264 263 263 267 271 271 271 267 266 266 265 264 262 262 263 263 263 262 263 263 263 264
270 272 273 272 271 270 268 263 262 262 261 262 264 262 261 260 259 260 261 260 259 261 262 263 263 265 269 272 272 270 269 268 268 268 267 266 265 265 264 263 262 263 265
275 274 275 274 274 273 272 271 270 265 261 260 260 260 260 262 261 259 259 260 261 260 259 261 261 260 261 263 266 269 269 270 272 274 272 270 268 265 264 265 265 264 263
267 269 271 271 271 270 270 270 270 269 268 266 263 260 258 257 257 259 261 262 262 262 262 260 260 260 261 262 263 264 265 267 269 269 269 270 270 270 270 268 268 267 267
273 273 273 273 272 271 270 268 267 267 267 266 266 266 264 261 258 256 256 258 259 260 261 261 261 261 261 261 262 263 263 263 263 266 266 265 266 266 268 270 268 267 267
271 274 275 275 276 277 277 275 273 272 270 268 266 264 263 264 264 262 258 255 255 256 256 259 260 261 262 261 261 263 265 267 267 262 263 264 262 263 263 265 268 269 267
270 276 280 281 280 279 277 276 274 273 272 271 270 267 265 263 261 259 260 260 258 254 255 255 256 257 259 261 262 262 261 263 262 272 269 258 260 262 264 264 262 264 264
279 280 279 279 279 280 281 279 278 281 282 284 287 286 280 275 268 262 257 256 256 256 255 254 256 257 257 258 259 260 264 270 266 269 267 267 260 258 268 264 267 265 263
Height
5880 5879 5878 5878 5877 5877 5877 5876 5875 5875 5874 5875 5876 5877 5877 5876 5875 5876 5877 5878 5878 5880 5880 5879 5879 5879 5880 5881 5883 5884 5885 5886 5886 5887 5887 5887 5887 5886 5886 5886 5886 5885 5885
5880 5879 5879 5879 5877 5876 5876 5876 5875 5875 5875 5876 5877 5878 5878 5878 5878 5878 5878 5879 5880 5881 5882 5882 5882 5882 5883 5884 5885 5886 5887 5888 5888 5888 5888 5888 5888 5888 5887 5887 5886 5886 5885
5880 5879 5879 5879 5878 5877 5876 5876 5875 5875 5876 5877 5878 5879 5879 5880 5880 5879 5880 5880 5881 5882 5883 5884 5885 5885 5886 5886 5887 5888 5889 5889 5889 5890 5889 5889 5889 5889 5888 5888 5887 5886 5885
5881 5879 5879 5879 5878 5878 5876 5876 5876 5876 5877 5878 5879 5879 5880 5881 5881 5881 5881 5882 5883 5883 5885 5885 5886 5887 5888 5889 5889 5889 5890 5890 5890 5891 5890 5890 5889 5889 5888 5888 5887 5886 5885
5881 5880 5879 5879 5879 5879 5877 5876 5877 5876 5877 5878 5879 5880 5880 5882 5883 5883 5882 5883 5884 5884 5885 5887 5887 5888 5889 5890 5890 5891 5891 5891 5891 5891 5891 5890 5890 5890 5889 5888 5888 5887 5886
5882 5881 5881 5881 5880 5880 5878 5877 5877 5877 5878 5878 5880 5880 5881 5882 5883 5883 5883 5884 5884 5885 5886 5887 5888 5889 5889 5890 5891 5891 5892 5892 5892 5892 5891 5891 5891 5891 5890 5889 5888 5887 5887
5883 5883 5882 5883 5883 5881 5880 5879 5877 5877 5878 5879 5880 5881 5881 5882 5882 5884 5884 5884 5884 5885 5886 5887 5888 5889 5890 5890 5890 5891 5892 5892 5892 5892 5892 5892 5891 5891 5890 5889 5888 5887 5886
5882 5882 5882 5883 5884 5883 5882 5881 5880 5877 5876 5877 5879 5880 5881 5881 5882 5882 5883 5884 5885 5885 5886 5887 5888 5889 5889 5890 5890 5891 5891 5891 5891 5891 5891 5891 5891 5891 5890 5890 5888 5887 5886
5881 5881 5881 5882 5883 5883 5883 5882 5882 5881 5878 5876 5876 5877 5879 5880 5881 5881 5882 5883 5884 5885 5886 5887 5887 5888 5889 5889 5890 5890 5890 5890 5890 5890 5890 5890 5890 5889 5889 5888 5887 5886 5885
5878 5879 5880 5880 5881 5882 5882 5882 5882 5882 5881 5880 5877 5877 5876 5877 5879 5880 5881 5881 5881 5882 5883 5885 5886 5887 5887 5887 5888 5889 5889 5889 5889 5889 5889 5888 5888 5887 5887 5886 5886 5885 5884
5875 5876 5878 5879 5879 5879 5880 5881 5881 5881 5881 5880 5879 5878 5877 5876 5876 5877 5879 5879 5879 5879 5880 5881 5882 5883 5884 5885 5885 5885 5886 5886 5886 5886 5886 5886 5886 5885 5884 5884 5883 5882 5882
5874 5874 5875 5876 5877 5878 5878 5878 5879 5879 5879 5879 5879 5878 5878 5877 5876 5875 5875 5876 5877 5877 5877 5877 5878 5879 5880 5881 5882 5882 5882 5882 5882 5882 5882 5883 5882 5882 5881 5880 5880 5879 5879
5871 5871 5872 5873 5874 5875 5876 5876 5876 5876 5876 5875 5876 5876 5876 5876 5875 5875 5874 5873 5873 5873 5874 5873 5874 5874 5875 5875 5876 5877 5877 5877 5877 5877 5877 5877 5877 5877 5876 5876 5875 5874 5874
5867 5868 5869 5869 5870 5871 5871 5872 5873 5872 5872 5872 5872 5872 5872 5873 5873 5873 5873 5873 5871 5870 5869 5869 5870 5870 5870 5870 5870 5870 5871 5871 5871 5871 5871 5872 5871 5871 5871 5870 5870 5869 5869
5862 5863 5865 5864 5865 5866 5866 5867 5867 5867 5867 5868 5868 5869 5868 5868 5869 5869 5870 5870 5869 5869 5867 5866 5865 5865 5865 5865 5865 5865 5864 5863 5864 5864 5864 5865 5865 5864 5864 5864 5864 5864 5863
5856 5857 5858 5858 5858 5859 5860 5860 5861 5861 5862 5862 5863 5863 5864 5864 5863 5863 5864 5864 5865 5864 5864 5864 5863 5861 5860 5858 5857 5857 5857 5857 5857 5857 5857 5858 5858 5858 5858 5857 5857 5857 5856
5848 5849 5850 5851 5851 5851 5852 5853 5854 5855 5855 5856 5857 5857 5857 5858 5858 5858 5858 5857 5857 5858 5859 5859 5859 5858 5857 5855 5854 5851 5850 5851 5852 5851 5851 5851 5851 5851 5851 5851 5850 5849 5849
5841 5842 5843 5843 5844 5845 5844 5845 5846 5848 5848 5849 5849 5849 5849 5850 5851 5851 5852 5852 5851 5850 5851 5852 5852 5852 5852 5851 5850 5848 5846 5845 5844 5844 5843 5844 5843 5843 5843 5843 5842 5841 5841
5834 5836 5836 5837 5837 5838 5838 5838 5838 5839 5840 5840 5841 5842 5842 5841 5842 5842 5843 5844 5844 5843 5843 5843 5843 5844 5844 5843 5844 5843 5842 5842 5840 5838 5837 5837 5836 5836 5835 5835 5834 5833 5833
5824 5825 5826 5827 5828 5828 5828 5829 5830 5829 5830 5831 5831 5832 5832 5833 5833 5832 5833 5833 5833 5833 5833 5834 5834 5833 5834 5834 5834 5835 5835 5834 5834 5833 5833 5830 5828 5828 5827 5826 5825 5825 5824
5815 5816 5816 5816 5816 5817 5817 5817 5818 5818 5819 5819 5820 5821 5821 5822 5822 5822 5822 5822 5822 5822 5823 5823 5822 5823 5822 5822 5822 5824 5825 5824 5825 5825 5824 5824 5823 5820 5818 5817 5817 5817 5816
5808 5807 5807 5807 5806 5806 5806 5806 5806 5806 5806 5806 5807 5807 5808 5809 5810 5809 5810 5810 5811 5811 5811 5810 5810 5811 5811 5810 5810 5810 5811 5813 5813 5812 5811 5811 5812 5813 5812 5811 5810 5809 5808
5797 5797 5797 5797 5796 5795 5796 5796 5796 5795 5794 5794 5794 5793 5793 5793 5794 5795 5796 5796 5796 5797 5797 5797 5797 5797 5798 5798 5798 5796 5796 5796 5798 5798 5796 5798 5796 5797 5799 5800 5800 5799 5799
5788 5789 5789 5788 5787 5785 5784 5783 5783 5782 5781 5781 5780 5779 5779 5779 5778 5778 5779 5780 5780 5782 5781 5782 5783 5783 5783 5784 5784 5783 5784 5784 5781 5784 5782 5781 5782 5783 5783 5785 5787 5788 5787
5783 5782 5780 5778 5777 5775 5773 5771 5769 5768 5767 5765 5764 5762 5762 5762 5761 5760 5761 5761 5762 5764 5764 5766 5768 5768 5768 5769 5768 5769 5768 5767 5761 5766 5767 5767 5766 5766 5770 5769 5771 5771 5773
5776 5775 5773 5770 5767 5765 5762 5760 5757 5756 5753 5751 5749 5746 5744 5742 5740 5739 5740 5741 5743 5744 5745 5746 5748 5749 5751 5752 5751 5751 5750 5751 5747 5745 5744 5744 5749 5754 5752 5753 5756 5757 5757